This is the latest recevied weather packets stored in our database for station/object N4AN. If no packets are shown the sender has not sent any weather packets the latest 10 day(s).
| Time | Temp. | Humidity | Pressure | Rain* | Wind** | Luminosity | Snow |
|---|---|---|---|---|---|---|---|
| 1777435147 | 25° C | 74% | 1011.5 hPa | 0 mm | - | - | - |
| 1777434847 | 25° C | 72% | 1011.8 hPa | 0 mm | - | - | - |
| 1777434540 | 25.56° C | 72% | 1011.8 hPa | 0 mm | - | - | - |
| 1777434240 | 26.11° C | 72% | 1012 hPa | 0 mm | - | - | - |
| 1777433940 | 26.11° C | 71% | 1011.8 hPa | 0 mm | - | - | - |
| 1777433639 | 26.11° C | 71% | 1011.8 hPa | 0 mm | - | - | - |
| 1777433339 | 25.56° C | 70% | 1011.9 hPa | 0 mm | - | - | - |
| 1777433039 | 26.11° C | 71% | 1011.8 hPa | 0 mm | - | - | - |
| 1777432739 | 26.11° C | 72% | 1011.9 hPa | 0 mm | - | - | - |
| 1777432437 | 26.11° C | 71% | 1011.9 hPa | 0 mm | - | - | - |
| 1777432137 | 26.11° C | 71% | 1012 hPa | 0 mm | - | - | - |
| 1777431836 | 26.11° C | 72% | 1012 hPa | 0 mm | - | - | - |
| 1777431536 | 26.11° C | 72% | 1012 hPa | 0 mm | - | - | - |
| 1777431236 | 26.11° C | 71% | 1012 hPa | 0 mm | - | - | - |
| 1777430936 | 26.11° C | 72% | 1012.1 hPa | 0 mm | - | - | - |
| 1777430635 | 26.11° C | 71% | 1012 hPa | 0 mm | - | - | - |
| 1777430335 | 26.11° C | 71% | 1011.9 hPa | 0 mm | - | - | - |
| 1777430057 | 26.11° C | 70% | 1012.2 hPa | 0 mm | - | - | - |
| 1777429588 | 26.11° C | 71% | 1012.1 hPa | 0 mm | - | - | - |
| 1777429102 | 26.67° C | 71% | 1012.2 hPa | 0 mm | - | - | - |
| 1777428798 | 26.11° C | 71% | 1012.1 hPa | 0 mm | - | - | - |
| 1777428493 | 26.11° C | 72% | 1012.1 hPa | 0 mm | - | - | - |
| 1777428193 | 26.67° C | 70% | 1012 hPa | 0 mm | - | - | - |
| 1777427718 | 26.67° C | 70% | 1012.2 hPa | 0 mm | - | - | - |
| 1777427406 | 27.22° C | 70% | 1012.1 hPa | 0 mm | - | - | - |
* Rain latest hour (hover to see other rain measurements)
** Current wind speed in m/s (hover to see current wind gust speed)